Weather History for Albany, NY

Change the Weather History Date:

Saturday, June 1, 2013

  Actual Average Record
Temperature  
Mean Temperature 78 °F 63 °F  
Max Temperature 90 °F 74 °F 94 °F (1918)
Min Temperature 66 °F 52 °F 35 °F (1945)
Degree Days  
Heating Degree Days 0 4  
Month to date heating degree days 0 4  
Since 1 June heating degree days 0 4  
Since 1 July heating degree days 6261 6632  
Cooling Degree Days 13 2  
Month to date cooling degree days 13 2  
Year to date cooling degree days 62 32  
Since 1 June cooling degree days 13 2  
Growing Degree Days 28 (Base 50)    
Moisture  
Dew Point 65 °F    
Average Humidity 66    
Maximum Humidity 81    
Minimum Humidity 50    
Precipitation  
Precipitation 0.00 in 0.13 in 3.47 in (1952)
Month to date precipitation 0.00 0.13  
Year to date precipitation 14.74 14.91  
Snow  
Snow 0.00 in 0.00 in 0.00 in ()
Month to date snowfall 0.0 0.0  
Since 1 June snowfall 0.0 0.0  
Since 1 July snowfall 51.4 59.1  
Snow Depth 0.00 in    
Sea Level Pressure  
Sea Level Pressure 29.90 in    
Wind  
Wind Speed 7 mph (South)    
Max Wind Speed 17 mph    
Max Gust Speed 23 mph    
Visibility 10 miles    
Events Thunderstorm    
T = Trace of Precipitation, MM = Missing Value Source: NWS Daily Summary

Daily Weather History Graph

Daily Weather History Graph

Search for Another Location

Airport:

Trip Planner

Search our weather history database for the weather conditions in past years. The results will help you decide how hot, cold, wet, or windy it might be!

Date:

Astronomy

Jun. 01, 2013 Rise Set
Actual Time 5:19 AM EDT 8:27 PM EDT
Civil Twilight 4:45 AM EDT 9:01 PM EDT
Nautical Twilight 4:01 AM EDT 9:45 PM EDT
Astronomical Twilight 3:08 AM EDT 10:38 PM EDT
Moon 1:23 AM EDT (6/1) 1:45 PM EDT (6/1)
Length of Visible Light 16h 15m
Length of Day
15h 07m
Last Quarter, 41% of the Moon is Illuminated
Jun 1
Last Quarter
Jun 8
New
Jun 16
First Quarter
Jun 23
Full
Jun 30
Last Quarter

Hourly Weather History & Observations

Time (EDT) Temp. Heat Index Dew Point Humidity Pressure Visibility Wind Dir Wind Speed Gust Speed Precip Events Conditions
12:51 AM 75.0 °F - 64.0 °F 69% 29.95 in 10.0 mi SSE 6.9 mph - N/A   Clear
1:51 AM 73.9 °F - 64.0 °F 71% 29.94 in 10.0 mi South 5.8 mph - N/A   Clear
2:51 AM 73.0 °F - 63.0 °F 71% 29.94 in 10.0 mi SSE 4.6 mph - N/A   Clear
3:51 AM 69.1 °F - 62.1 °F 78% 29.95 in 10.0 mi Calm Calm - N/A   Clear
4:51 AM 66.9 °F - 61.0 °F 81% 29.95 in 10.0 mi Variable 3.5 mph - N/A   Partly Cloudy
5:51 AM 68.0 °F - 61.0 °F 78% 29.95 in 10.0 mi SSE 4.6 mph - N/A   Partly Cloudy
6:51 AM 72.0 °F - 61.0 °F 68% 29.96 in 10.0 mi South 4.6 mph - N/A   Partly Cloudy
7:51 AM 73.9 °F - 62.1 °F 66% 29.97 in 10.0 mi South 9.2 mph - N/A   Partly Cloudy
8:51 AM 77.0 °F - 64.0 °F 64% 29.97 in 10.0 mi SSE 5.8 mph - N/A   Partly Cloudy
9:51 AM 79.0 °F - 64.9 °F 62% 29.95 in 10.0 mi SSE 8.1 mph - N/A   Partly Cloudy
10:51 AM 82.0 °F 83.8 °F 64.9 °F 56% 29.94 in 10.0 mi South 9.2 mph - N/A   Partly Cloudy
11:51 AM 84.0 °F 86.3 °F 66.0 °F 55% 29.92 in 10.0 mi South 8.1 mph - N/A   Scattered Clouds
12:51 PM 87.1 °F 89.9 °F 66.9 °F 51% 29.90 in 10.0 mi Variable 5.8 mph - N/A   Scattered Clouds
1:51 PM 86.0 °F 88.2 °F 66.0 °F 51% 29.88 in 10.0 mi South 5.8 mph - N/A   Mostly Cloudy
2:51 PM 88.0 °F 90.7 °F 66.9 °F 49% 29.86 in 10.0 mi SSW 9.2 mph - N/A Thunderstorm Thunderstorm
3:38 PM 87.8 °F 89.4 °F 64.4 °F 46% 29.86 in 10.0 mi South 6.9 mph - N/A   Mostly Cloudy
3:51 PM 88.0 °F 90.3 °F 66.0 °F 48% 29.86 in 10.0 mi SSE 6.9 mph - N/A   Mostly Cloudy
4:51 PM 88.0 °F 91.4 °F 68.0 °F 51% 29.85 in 10.0 mi SSE 8.1 mph - N/A   Mostly Cloudy
5:51 PM 87.1 °F 91.3 °F 69.1 °F 55% 29.83 in 10.0 mi Variable 5.8 mph - N/A   Mostly Cloudy
6:51 PM 87.1 °F 90.6 °F 68.0 °F 53% 29.82 in 10.0 mi South 12.7 mph 20.7 mph N/A   Mostly Cloudy
7:51 PM 84.0 °F 85.8 °F 64.9 °F 53% 29.82 in 10.0 mi South 11.5 mph - N/A   Mostly Cloudy
8:51 PM 81.0 °F 82.7 °F 64.9 °F 58% 29.83 in 10.0 mi South 9.2 mph - N/A   Scattered Clouds
9:51 PM 79.0 °F - 66.0 °F 64% 29.84 in 10.0 mi South 6.9 mph - N/A   Scattered Clouds
10:51 PM 79.0 °F - 66.9 °F 66% 29.84 in 10.0 mi South 10.4 mph 17.3 mph N/A   Scattered Clouds
11:51 PM 78.1 °F - 66.9 °F 68% 29.84 in 10.0 mi South 10.4 mph - N/A   Scattered Clouds